Weather History for Malmstrom AFB, MT

Change the Weather History Date:

Sunday, October 14, 2012

  Actual Average (KGTF) Record (KGTF)
Temperature  
Mean Temperature 54 °F 46 °F  
Max Temperature 62 °F 59 °F 81 °F (1958)
Min Temperature 46 °F 33 °F 12 °F (1899)
Degree Days  
Heating Degree Days 11 19  
Month to date heating degree days 236  
Since 1 July heating degree days 643  
Cooling Degree Days 0 0  
Month to date cooling degree days 0  
Year to date cooling degree days 297  
Growing Degree Days 4 (Base 50)    
Moisture  
Dew Point 37 °F    
Average Humidity 49    
Maximum Humidity 71    
Minimum Humidity 38    
Precipitation  
Precipitation 0.00 in 0.03 in 0.52 in (1962)
Month to date precipitation 0.45  
Year to date precipitation 13.20  
Snow  
Snow 0.00 in 0.10 in 2.90 in (1992)
Month to date snowfall 1.4  
Since 1 July snowfall 2.9  
Since 1 September snowfall 2.6  
Snow Depth -    
Sea Level Pressure  
Sea Level Pressure 30.05 in    
Wind  
Wind Speed 16 mph (SSW)    
Max Wind Speed 34 mph    
Max Gust Speed 40 mph    
Visibility 10 miles    
Events      
T = Trace of Precipitation, MM = Missing Value Source: NWS Daily Summary

Daily Weather History Graph

Daily Weather History Graph

Search for Another Location

Airport:

Trip Planner

Search our weather history database for the weather conditions in past years. The results will help you decide how hot, cold, wet, or windy it might be!

Date:

Astronomy

Oct. 14, 2012 Rise Set
Actual Time 7:42 AM MDT 6:37 PM MDT
Civil Twilight 7:11 AM MDT 7:08 PM MDT
Nautical Twilight 6:36 AM MDT 7:44 PM MDT
Astronomical Twilight 6:00 AM MDT 8:19 PM MDT
Moon 6:45 AM MDT (10/14) 5:58 PM MDT (10/14)
Length of Visible Light 11h 56m
Length of Day
10h 54m
Waning Crescent, 1% of the Moon is Illuminated
Oct 14
Waning Crescent
Oct 15
New
Oct 21
First Quarter
Oct 29
Full
Nov 6
Last Quarter

Hourly Weather History & Observations

Time (MDT) Temp. Windchill Dew Point Humidity Pressure Visibility Wind Dir Wind Speed Gust Speed Precip Events Conditions
12:56 AM 52.0 °F - 37.0 °F 57% 30.11 in 10.0 mi SSW 12.7 mph - N/A   Clear
1:56 AM 51.1 °F - 37.0 °F 59% 30.13 in 10.0 mi SSW 10.4 mph - N/A   Clear
2:56 AM 52.0 °F - 36.0 °F 54% 30.13 in 10.0 mi SSW 12.7 mph - N/A   Clear
3:56 AM 48.9 °F - 36.0 °F 61% 30.16 in 10.0 mi SSW 9.2 mph - N/A   Clear
4:56 AM 48.9 °F - 37.0 °F 64% 30.16 in 10.0 mi SSW 13.8 mph - N/A   Clear
5:56 AM 46.9 °F - 37.0 °F 68% 30.17 in 10.0 mi SSW 10.4 mph - N/A   Clear
6:56 AM 46.0 °F 41.4 °F 37.0 °F 71% 30.18 in 10.0 mi South 9.2 mph - N/A   Clear
7:56 AM 52.0 °F - 39.0 °F 61% 30.14 in 10.0 mi SSW 15.0 mph - N/A   Partly Cloudy
8:56 AM 55.9 °F - 37.9 °F 51% 30.11 in 10.0 mi SSW 24.2 mph 31.1 mph N/A   Scattered Clouds
9:56 AM 59.0 °F - 37.9 °F 46% 30.12 in 10.0 mi SSW 27.6 mph 34.5 mph N/A   Clear
10:56 AM 61.0 °F - 37.9 °F 42% 30.08 in 10.0 mi SSW 34.5 mph 40.3 mph N/A   Clear
12:56 PM 61.0 °F - 37.0 °F 41% 30.06 in 10.0 mi SSW 25.3 mph 35.7 mph N/A   Clear
1:56 PM 60.1 °F - 37.9 °F 44% 30.06 in 10.0 mi SSW 24.2 mph 32.2 mph N/A   Overcast
2:56 PM 60.1 °F - 37.9 °F 44% 30.05 in 10.0 mi SSW 16.1 mph - N/A   Overcast
3:56 PM 59.0 °F - 37.9 °F 46% 30.04 in 10.0 mi South 13.8 mph - 0.00 in   Overcast
4:56 PM 60.1 °F - 37.0 °F 42% 30.01 in 10.0 mi South 15.0 mph - N/A   Mostly Cloudy
5:56 PM 61.0 °F - 36.0 °F 39% 29.99 in 10.0 mi South 16.1 mph - N/A   Clear
6:56 PM 59.0 °F - 36.0 °F 42% 29.97 in 10.0 mi South 15.0 mph - N/A   Clear
7:56 PM 59.0 °F - 36.0 °F 42% 29.94 in 10.0 mi South 11.5 mph - N/A   Clear
8:56 PM 61.0 °F - 36.0 °F 39% 29.90 in 10.0 mi SSW 17.3 mph - N/A   Clear
9:56 PM 62.1 °F - 36.0 °F 38% 29.87 in 10.0 mi SSW 21.9 mph 27.6 mph N/A   Clear
10:56 PM 62.1 °F - 36.0 °F 38% 29.84 in 10.0 mi SSW 19.6 mph 28.8 mph N/A   Clear
11:56 PM 61.0 °F - 36.0 °F 39% 29.84 in 10.0 mi SSW 21.9 mph 27.6 mph N/A   Clear